sat.trackr.live / text

‹ back to catalog

2023-091T

NORAD 57183 · 2023-091T

PAYLOAD ACTIVE UNKNOWN

§ Identity

Operator
Country
CIS
Launch date
2023-06-27
Launch site
VOSTO
Launch vehicle
Mass (kg)
RCS (m²)

External: N2YO · Heavens-Above · Gunter

§ Orbital elements

Epoch: 2026-09-21T21:12:59.606208Z

Period
94.75 min
Inclination
97.4989°
Eccentricity
0.0012256
Mean motion
15.19711789 rev/d
Perigee alt
498.3 km
Apogee alt
515.1 km
Semi-major
6,884.8 km
B*
1.3473e-4
RAAN
322.9128°
Arg perigee
129.0453°
Mean anomaly
231.1874°
Rev number
17,865

§ Raw data

2023-091T1 57183U 23091T   26264.88402322  .00002813  00000+0  13473-3 0  99922 57183  97.4989 322.9128 0012256 129.0453 231.1874 15.19711789178651

JSON: /api/v1/satellites/57183 · /tle

For live sub-satellite position, see the globe view (requires WebGL).

§ Visibility from observer

Set your observer location to see the next 7 days of passes ≥ 10°. The values pass through the URL so the page stays shareable.

No JS? Fill the form by hand. The geolocation button needs JavaScript.

§ Radio — SatNOGS DB

ModeDescriptionDownlinkUplink
LoRa Mode U - LoRa 62.5k 435.050 MHz

1 transmitter · refreshed weekly from db.satnogs.org